North Las Vegas, NV

1:15 PM PST on December 11, 2018 (GMT -0800)
North Las Vegas

Weather History for KVGT - March, 2018

Change the Weather History Date:

Wednesday, March 14, 2018

  Actual Average Record
Temperature  
Mean Temperature 64 °F 58 °F  
Max Temperature 72 °F 69 °F 87 °F (2007)
Min Temperature 56 °F 47 °F 39 °F (2006)
Degree Days  
Heating Degree Days 1 7  
Month to date heating degree days 107 120  
Since 1 July heating degree days 1367 1881  
Cooling Degree Days 0 1  
Month to date cooling degree days 0 4  
Year to date cooling degree days 0 4  
Growing Degree Days 14 (Base 50)    
Moisture  
Dew Point 37 °F    
Average Humidity 39    
Maximum Humidity 56    
Minimum Humidity 22    
Precipitation  
Precipitation 0.00 in 0.01 in 0.03 in (1991)
Month to date precipitation 0.31 0.41  
Year to date precipitation 1.59 1.99  
Sea Level Pressure  
Sea Level Pressure 29.81 in    
Wind  
Wind Speed 15 mph (SSW)    
Max Wind Speed 33 mph    
Max Gust Speed 43 mph    
Visibility 10 miles    
Events      
T = Trace of Precipitation, MM = Missing Value Source: NWS Daily Summary

Daily Weather History Graph

Daily Weather History Graph

Search for Another Location

Airport or City:

Astronomy

Mar. 14, 2018 Rise Set
Actual Time 6:52 AM PDT 6:47 PM PDT
Civil Twilight 6:27 AM PDT 7:13 PM PDT
Nautical Twilight 5:57 AM PDT 7:42 PM PDT
Astronomical Twilight 5:27 AM PDT 8:13 PM PDT
Moon 5:25 AM PDT (3/14) 4:15 PM PDT (3/14)
Length of Visible Light 12h 45m
Length of Day
11h 54m
Waning Crescent, 8% of the Moon is Illuminated
Mar 14
Waning Crescent
Mar 17
New
Mar 24
First Quarter
Mar 31
Full
Apr 8
Last Quarter

Hourly Weather History & Observations

Time (PDT) Temp. Dew Point Humidity Pressure Visibility Wind Dir Wind Speed Gust Speed Precip Events Conditions
12:53 AM 66.9 °F 48.0 °F 51% 29.88 in 10.0 mi SSE 5.8 mph - N/A   Mostly Cloudy
1:53 AM 64.9 °F 48.9 °F 56% 29.87 in 10.0 mi East 5.8 mph - N/A   Partly Cloudy
2:53 AM 64.9 °F 48.9 °F 56% 29.86 in 10.0 mi SE 5.8 mph - N/A   Clear
3:53 AM 64.9 °F 45.0 °F 48% 29.84 in 10.0 mi Calm Calm - N/A   Clear
4:53 AM 63.0 °F 44.1 °F 50% 29.85 in 10.0 mi South 8.1 mph - N/A   Clear
5:53 AM 62.1 °F 43.0 °F 50% 29.84 in 10.0 mi South 10.4 mph - N/A   Clear
6:53 AM 60.1 °F 43.0 °F 53% 29.84 in 10.0 mi SSE 10.4 mph - N/A   Clear
7:53 AM 60.1 °F 41.0 °F 49% 29.85 in 10.0 mi South 5.8 mph - N/A   Clear
8:53 AM 63.0 °F 42.1 °F 46% 29.83 in 10.0 mi South 17.3 mph 21.9 mph N/A   Clear
9:53 AM 66.9 °F 41.0 °F 39% 29.83 in 10.0 mi South 18.4 mph - N/A   Clear
10:53 AM 69.1 °F 39.0 °F 33% 29.81 in 10.0 mi South 19.6 mph 32.2 mph N/A   Clear
11:53 AM 69.1 °F 39.0 °F 33% 29.78 in 10.0 mi South 25.3 mph 40.3 mph N/A   Clear
12:53 PM 71.1 °F 35.1 °F 27% 29.78 in 10.0 mi WSW 17.3 mph 24.2 mph N/A   Partly Cloudy
1:53 PM 71.1 °F 36.0 °F 28% 29.75 in 10.0 mi SW 23.0 mph - N/A   Clear
2:53 PM 70.0 °F 34.0 °F 27% 29.74 in 10.0 mi SW 18.4 mph 34.5 mph N/A   Clear
3:53 PM 70.0 °F 30.9 °F 24% 29.74 in 10.0 mi SW 26.5 mph 40.3 mph N/A   Clear
4:53 PM 68.0 °F 30.9 °F 25% 29.74 in 10.0 mi SSW 19.6 mph 25.3 mph N/A   Clear
5:53 PM 66.0 °F 26.1 °F 22% 29.76 in 10.0 mi West 15.0 mph 25.3 mph N/A   Clear
6:53 PM 63.0 °F 26.1 °F 25% 29.78 in 10.0 mi WSW 15.0 mph - N/A   Partly Cloudy
7:53 PM 61.0 °F 27.0 °F 27% 29.79 in 10.0 mi WSW 9.2 mph 18.4 mph N/A   Clear
8:53 PM 60.1 °F 30.0 °F 32% 29.80 in 10.0 mi SW 8.1 mph - N/A   Partly Cloudy
9:53 PM 57.9 °F 30.0 °F 35% 29.80 in 10.0 mi WSW 5.8 mph - N/A   Clear
10:53 PM 57.0 °F 28.9 °F 34% 29.77 in 10.0 mi WSW 23.0 mph - N/A   Clear
11:53 PM 55.9 °F 32.0 °F 40% 29.79 in 10.0 mi SW 20.7 mph - N/A   Clear